Tracking 34719 objects as of 12-Jul-2026
HD Live streaming from Space Station
objects crossing your sky now

STARLINK-37651

Track STARLINK-37651 now!
10-day predictions
STARLINK-37651 is classified as:


NORAD ID: 69353
Int'l Code: 2026-123A
Perigee: 347.2 km
Apogee: 388.4 km
Inclination: 53.2 °
Period: 91.8 minutes
Semi major axis: 6738 km
RCS: Unknown
Launch date: June 4, 2026
Source: United States (US)
Launch site: AIR FORCE EASTERN TEST RANGE (AFETR)
Your satellite tracking list
Your tracking list is empty




NASA's NSSDC Master Catalog

Two Line Element Set (TLE):
1 69353U 26123A   26192.16622247 -.05073269  00000-0 -50040-1 0  9994
2 69353  53.1623 122.0278 0030529  97.7153 262.7333 15.69386187  5826
Source of the keplerian elements: AFSPC